Regional Weather Roundup
Issued by NWS

Home | Current Version | Previous Version | Graphics & Text | Print | Product List | Glossary On
Versions: 1 2 3 4 5 6 7 8 9 10 11 12 13 14 15 16 17 18 19 20 21 22 23 24 25 26 27 28 29 30 31 32 33 34 35 36 37 38 39 40 41 42 43 44 45 46 47 48 49 50
500
ASUS43 KLSX 232210
RWRMO

WEATHER SUMMARY FOR MISSOURI
NATIONAL WEATHER SERVICE SPRINGFIELD MO
400 PM CST THU FEB 23 2017

NOTE: "FAIR" INDICATES FEW OR NO CLOUDS BELOW 12,000 FEET WITH NO
       SIGNIFICANT WEATHER AND/OR OBSTRUCTIONS TO VISIBILITY.
       CURRENT SKY AND/OR WEATHER CONDITIONS ARE NOT AVAILABLE FOR
       CHILLICOTHE AND FARMINGTON.

MOZ001>031-035>038-043-044-053-054-232300-
...NORTHERN AND WESTERN MISSOURI...

CITY           SKY/WX    TMP DP  RH WIND       PRES   REMARKS
KANSAS CTY INT PTSUNNY   54  45  71 E16       29.44F
KANSAS C DTWN  CLOUDY    56  44  64 E12       29.43F
LEE`S SUMMIT   CLOUDY    57  47  69 NE9       29.44F
ST JOSEPH      PTSUNNY   56  46  69 E8        29.48S
CHILLICOTHE      N/A     50  44  80 E6        29.52S
KIRKSVILLE     CLOUDY    48  44  86 E15G23    29.53F

$$
MOZ066>068-077>081-088>096-101>105-232300-
...SOUTHWEST MISSOURI...

CITY           SKY/WX    TMP DP  RH WIND       PRES   REMARKS
SPRINGFIELD    PTSUNNY   81  45  28 S20G30    29.43F
JOPLIN         PTSUNNY   81  47  30 S15G31    29.39F
BRANSON        PTSUNNY   75  48  38 S16G25    29.50F

$$
MOZ032>034-039>042-045>050-055>058-069>072-232300-
...CENTRAL MISSOURI...

CITY           SKY/WX    TMP DP  RH WIND       PRES   REMARKS
COLUMBIA       PTSUNNY   65  56  72 NE12      29.49S
JEFFERSON CITY MOSUNNY   72  53  51 SE22      29.46F
ROLLA          SUNNY     70  55  59 SE16G24   29.49F
SEDALIA        PTSUNNY   69  55  60 E15       29.46F
WHITEMAN AFB   PTSUNNY   68  57  67 E15       29.42F
WARRENSBURG    CLOUDY    64  52  63 NE10      29.43F
OSAGE BEACH    MOSUNNY   79  53  40 S15G24    29.46F

$$
MOZ051-052-059>065-232300-
...EAST CENTRAL MISSOURI...

CITY           SKY/WX    TMP DP  RH WIND       PRES   REMARKS
ST LOUIS INTL  PTSUNNY   71  55  56 SE21G28   29.57F
SPIRIT OF STL  PTSUNNY   69  56  62 SE12G21   29.55R
ST CHARLES     PTSUNNY   69  57  65 SE16      29.55F

$$
MOZ072>076-082>087-097>100-106>115-232300-
...SOUTH CENTRAL AND SOUTHEAST MISSOURI...

CITY           SKY/WX    TMP DP  RH WIND       PRES   REMARKS
CAPE GIRARDEAU MOSUNNY   72  54  53 S16G25    29.63F
FARMINGTON     MOSUNNY   68  56  65 S17G25    29.59F
POPLAR BLUFF   SUNNY     72  58  61 S13       29.62F
WEST PLAINS    SUNNY     72  54  53 S14G28    29.57F

$$




USA.gov is the U.S. government's official web portal to all federal, state and local government web resources and services.